Weather History for Auburn, AL

Change the Weather History Date:

Sunday, January 1, 2012

  Actual Average Record
Temperature  
Mean Temperature 56 °F -  
Max Temperature 62 °F - 76 °F (1975)
Min Temperature 46 °F - 11 °F (1984)
Degree Days  
Heating Degree Days 9    
Month to date heating degree days  
Since 1 July heating degree days 728  
Growing Degree Days 6 (Base 50)    
Moisture  
Dew Point 48 °F    
Average Humidity 83    
Maximum Humidity 100    
Minimum Humidity 34    
Precipitation  
Precipitation 0.00 in - 2.90 in (1974)
Month to date precipitation 0.00  
Year to date precipitation 0.00  
Sea Level Pressure  
Sea Level Pressure 30.16 in    
Wind  
Wind Speed 9 mph (SW)    
Max Wind Speed 14 mph    
Max Gust Speed 21 mph    
Visibility 8 miles    
Events      
T = Trace of Precipitation, MM = Missing Value Source: NWS Daily Summary

Daily Weather History Graph

Daily Weather History Graph

Search for Another Location

Airport:

Trip Planner

Search our weather history database for the weather conditions in past years. The results will help you decide how hot, cold, wet, or windy it might be!

Date:

Astronomy

Jan. 01, 2012 Rise Set
Actual Time 6:43 AM CST 4:46 PM CST
Civil Twilight 6:16 AM CST 5:13 PM CST
Nautical Twilight 5:45 AM CST 5:44 PM CST
Astronomical Twilight 5:15 AM CST 6:14 PM CST
Moon 11:23 AM CST (1/1) No Moon Set
Length of Visible Light 10h 57m
Length of Day
10h 02m
First Quarter, 55% of the Moon is Illuminated
Jan 1
First Quarter
Jan 9
Full
Jan 16
Last Quarter
Jan 23
New
Jan 30
First Quarter

Hourly Weather History & Observations

Time (CST) Temp. Windchill Dew Point Humidity Pressure Visibility Wind Dir Wind Speed Gust Speed Precip Events Conditions
12:15 AM 51.8 °F - 42.8 °F 71% 30.17 in 10.0 mi South 4.6 mph - N/A   Clear
12:35 AM 51.8 °F - 42.8 °F 71% 30.16 in 10.0 mi SSW 6.9 mph - N/A   Clear
12:55 AM 51.8 °F - 44.6 °F 76% 30.16 in 10.0 mi South 3.5 mph - N/A   Clear
1:15 AM 51.8 °F - 44.6 °F 76% 30.17 in 10.0 mi Calm Calm - N/A   Clear
2:15 AM 51.8 °F - 46.4 °F 82% 30.17 in 10.0 mi SSW 4.6 mph - N/A   Clear
2:35 AM 51.8 °F - 46.4 °F 82% 30.16 in 10.0 mi South 3.5 mph - N/A   Clear
2:55 AM 51.8 °F - 46.4 °F 82% 30.17 in 10.0 mi SSW 3.5 mph - N/A   Clear
3:15 AM 51.8 °F - 46.4 °F 82% 30.17 in 10.0 mi Calm Calm - N/A   Clear
3:35 AM 50.0 °F - 46.4 °F 87% 30.16 in 10.0 mi South 4.6 mph - N/A   Partly Cloudy
3:55 AM 50.0 °F - 48.2 °F 94% 30.16 in 10.0 mi South 5.8 mph - N/A   Mostly Cloudy
4:15 AM 50.0 °F - 48.2 °F 94% 30.17 in 10.0 mi SSW 4.6 mph - N/A   Overcast
4:35 AM 51.8 °F - 48.2 °F 88% 30.17 in 10.0 mi SSW 3.5 mph - N/A   Overcast
4:55 AM 51.8 °F - 50.0 °F 94% 30.16 in 10.0 mi South 5.8 mph - N/A   Overcast
5:15 AM 51.8 °F - 50.0 °F 94% 30.16 in 7.0 mi South 8.1 mph - N/A   Overcast
5:35 AM 51.8 °F - 51.8 °F 100% 30.17 in 5.0 mi SW 5.8 mph - N/A   Overcast
5:55 AM 51.8 °F - 51.8 °F 100% 30.17 in 6.0 mi SSW 5.8 mph - N/A   Overcast
6:15 AM 53.6 °F - 51.8 °F 94% 30.17 in 6.0 mi SSW 6.9 mph - N/A   Overcast
6:35 AM 53.6 °F - 51.8 °F 94% 30.18 in 7.0 mi SSW 5.8 mph - N/A   Overcast
6:55 AM 51.8 °F - 51.8 °F 100% 30.18 in 3.0 mi South 8.1 mph - N/A   Overcast
7:15 AM 51.8 °F - 50.0 °F 94% 30.19 in 1.2 mi SSW 6.9 mph - N/A   Overcast
7:35 AM 53.6 °F - 53.6 °F 100% 30.19 in 2.0 mi SSW 8.1 mph - N/A   Overcast
7:55 AM 53.6 °F - 53.6 °F 100% 30.19 in 1.0 mi SSW 9.2 mph - N/A   Overcast
8:15 AM 53.6 °F - 53.6 °F 100% 30.19 in 0.2 mi SSW 9.2 mph - N/A   Overcast
8:35 AM 53.6 °F - 51.8 °F 94% 30.19 in 0.2 mi SSW 10.4 mph - N/A   Overcast
8:55 AM 55.4 °F - 53.6 °F 94% 30.20 in 0.2 mi SW 9.2 mph - N/A   Overcast
9:15 AM 55.4 °F - 55.4 °F 100% 30.20 in 0.2 mi SSW 10.4 mph - N/A   Overcast
9:35 AM 55.4 °F - 53.6 °F 94% 30.20 in 0.2 mi SW 9.2 mph - N/A   Overcast
9:55 AM 55.4 °F - 55.4 °F 100% 30.19 in 0.8 mi SSW 10.4 mph - N/A   Overcast
10:15 AM - - - N/A% 30.18 in 9.0 mi SW 11.5 mph - N/A   Overcast
10:35 AM 59.0 °F - 57.2 °F 94% 30.17 in 10.0 mi SSW 12.7 mph - N/A   Overcast
10:55 AM 60.8 °F - 57.2 °F 88% 30.15 in 10.0 mi SSW 11.5 mph - N/A   Overcast
11:15 AM 62.6 °F - 57.2 °F 82% 30.14 in 10.0 mi SW 9.2 mph - N/A   Overcast
11:35 AM - - - N/A% 30.14 in 10.0 mi SW 11.5 mph 17.3 mph N/A   Overcast
11:55 AM - - - N/A% 30.14 in 10.0 mi WSW 6.9 mph - N/A   Overcast
12:15 PM - - - N/A% 30.13 in 10.0 mi WSW 9.2 mph - N/A   Overcast
12:35 PM - - - N/A% 30.13 in 10.0 mi West 10.4 mph 16.1 mph N/A   Overcast
12:55 PM - - - N/A% 30.12 in 10.0 mi WSW 11.5 mph 17.3 mph N/A   Mostly Cloudy
1:15 PM - - - N/A% 30.10 in 10.0 mi WSW 8.1 mph - N/A   Mostly Cloudy
1:35 PM - - - N/A% 30.10 in 10.0 mi West 10.4 mph - N/A   Overcast
1:55 PM - - - N/A% 30.09 in 10.0 mi WSW 12.7 mph 18.4 mph N/A   Mostly Cloudy
2:15 PM - - - N/A% 30.10 in 10.0 mi WNW 17.3 mph 24.2 mph N/A   Overcast
2:35 PM - - - N/A% 30.10 in 10.0 mi West 10.4 mph 20.7 mph N/A   Mostly Cloudy
2:55 PM - - - N/A% 30.11 in 10.0 mi West 11.5 mph 19.6 mph N/A   Mostly Cloudy
3:15 PM - - - N/A% 30.11 in 10.0 mi West 11.5 mph 20.7 mph N/A   Mostly Cloudy
3:35 PM - - - N/A% 30.12 in 10.0 mi West 11.5 mph 16.1 mph N/A   Partly Cloudy
3:55 PM - - - N/A% 30.12 in 10.0 mi West 12.7 mph - N/A   Partly Cloudy
4:15 PM - - - N/A% 30.13 in 10.0 mi West 9.2 mph 21.9 mph N/A   Clear
4:35 PM - - - N/A% 30.13 in 10.0 mi West 11.5 mph 21.9 mph N/A   Clear
4:55 PM 62.6 °F - 33.8 °F 34% 30.15 in 10.0 mi West 9.2 mph - N/A   Clear
5:15 PM 60.8 °F - 33.8 °F 36% 30.16 in 10.0 mi West 8.1 mph - N/A   Clear
5:35 PM 60.8 °F - 33.8 °F 36% 30.17 in 10.0 mi West 9.2 mph - N/A   Clear
5:55 PM 59.0 °F - 33.8 °F 39% 30.18 in 10.0 mi WNW 6.9 mph - N/A   Clear
6:15 PM 57.2 °F - 35.6 °F 44% 30.19 in 10.0 mi NW 10.4 mph - N/A   Clear
6:35 PM 57.2 °F - 35.6 °F 44% 30.20 in 10.0 mi NW 10.4 mph - N/A   Clear
6:55 PM 55.4 °F - 35.6 °F 47% 30.21 in 10.0 mi NW 10.4 mph 17.3 mph N/A   Clear
7:15 PM 55.4 °F - 35.6 °F 47% 30.22 in 10.0 mi NNW 12.7 mph 18.4 mph N/A   Clear
7:35 PM 55.4 °F - 35.6 °F 47% 30.22 in 10.0 mi NNW 16.1 mph 21.9 mph N/A   Clear
7:55 PM 53.6 °F - 33.8 °F 47% 30.23 in 10.0 mi NNW 12.7 mph 20.7 mph N/A   Clear
8:15 PM 53.6 °F - 33.8 °F 47% 30.24 in 10.0 mi NNW 11.5 mph 19.6 mph N/A   Clear
8:35 PM - - - N/A% 30.24 in 10.0 mi NNW 18.4 mph 23.0 mph N/A   Clear
8:55 PM 51.8 °F - 30.2 °F 44% 30.25 in 10.0 mi NNW 13.8 mph 19.6 mph N/A   Clear
9:15 PM 51.8 °F - 30.2 °F 44% 30.25 in 10.0 mi NNW 12.7 mph 19.6 mph N/A   Clear
9:35 PM 50.0 °F - 30.2 °F 47% 30.25 in 10.0 mi NW 11.5 mph - N/A   Clear
9:55 PM 48.2 °F - 32.0 °F 54% 30.25 in 10.0 mi NW 9.2 mph - N/A   Clear
10:15 PM 48.2 °F - 32.0 °F 54% 30.25 in 10.0 mi NW 15.0 mph 18.4 mph N/A   Clear
10:35 PM 48.2 °F - 30.2 °F 50% 30.25 in 10.0 mi NW 10.4 mph - N/A   Clear
11:15 PM 46.4 °F 41.9 °F 30.2 °F 53% 30.25 in 10.0 mi NW 9.2 mph - N/A   Clear
11:35 PM 46.4 °F 41.5 °F 30.2 °F 53% 30.25 in 10.0 mi NNW 10.4 mph - N/A   Clear
11:55 PM 46.4 °F 41.5 °F 30.2 °F 53% 30.25 in 10.0 mi NW 10.4 mph - N/A   Clear